Tracking 25703 objects as of 2-Jul-2022
HD Live streaming from Space Station
objects crossing your sky now

IRS P4 (OCEANSAT 1)

Track IRS P4 (OCEANSAT 1) now!
10-day predictions
IRS P4 (OCEANSAT 1) is classified as:


NORAD ID: 25758
Int'l Code: 1999-029C
Perigee: 721.9 km
Apogee: 725.7 km
Inclination: 97.9 °
Period: 99.1 minutes
Semi major axis: 7094 km
RCS: 3.5411 m2 (large)
Launch date: May 26, 1999
Source: India (IND)
Launch site: SRIHARIKOTA (SRI)

Transmits image of its own view; not currently used for scientific mission but operational.
aabbcc
Your satellite tracking list
Your tracking list is empty




NASA's NSSDC Master Catalog

Two Line Element Set (TLE):
1 25758U 99029C   22183.56175848  .00000102  00000-0  34870-4 0  9995
2 25758  97.9272 213.3861 0002671 358.3346   1.7841 14.52755462224052
Source of the keplerian elements: AFSPC